Regional Weather Roundup
Issued by NWS

Home | Current Version | Previous Version | Graphics & Text | Print | Product List | Glossary On
Versions: 1 2 3 4 5 6 7 8 9 10 11 12 13 14 15 16 17 18 19 20 21 22 23 24 25 26 27 28 29 30 31 32 33 34 35 36 37 38 39 40 41 42 43 44 45 46 47 48 49 50
000
ASUS45 KABQ 291410
RWRNM
NEW MEXICO REGIONAL WEATHER ROUNDUP
NATIONAL WEATHER SERVICE ALBUQUERQUE NM
800 AM MDT SUN MAY 29 2016

NOTE: "FAIR" MEANS FEW OR NO CLOUDS BELOW 12,000 FEET AGL WITH NO
       SIGNIFICANT WEATHER OR OBSTRUCTIONS TO VISION.

      THIS PRODUCT IS RELEASED AS TWO VERSIONS.  ONE VERSION NEAR
      THE TOP OF THE HOUR CONTAINING PRELIMINARY DATA FROM ALBUQUERQUE
      AND OTHER STATIONS.  A FINAL VERSION WITH ADDITIONAL DATA IS
      ISSUED ABOUT 10 MINUTES AFTER THE HOUR.

NMZ501-503-504-510>518-291500-
NORTHWEST PLATEAU/NORTHCENTRAL MOUNTAINS

CITY           SKY/WX    TMP DP  RH WIND       PRES   REMARKS
FARMINGTON     FAIR      57  31  37 SE9       30.15R
LOS ALAMOS     FAIR      57  28  31 CALM      30.27S
SANTA FE       FAIR      61  28  28 N12       30.21S
TAOS           FAIR      54  30  40 N12       30.29R
ANGEL FIRE     FAIR      44  29  57 CALM      30.38S

$$
NMZ402-403-502-505>509-291500-
WESTCENTRAL MOUNTAINS/SOUTHWEST MOUNTAINS

CITY           SKY/WX    TMP DP  RH WIND       PRES   REMARKS
GALLUP         FAIR      52  30  43 NE5       30.22R
GRANTS         FAIR      49  23  35 CALM      30.24R
SILVER CITY      N/A     64  14  14 NW5       30.21R

$$
NMZ407-409-411-412-291500-
SOUTHERN DESERTS

CITY           SKY/WX    TMP DP  RH WIND       PRES   REMARKS
LORDSBURG      FAIR      63   9  12 S3        30.13S
DEMING         FAIR      61  14  16 CALM      30.14R
LAS CRUCES     FAIR      72  10   9 CALM      30.13S
HOLLOMAN AFB   FAIR      65  18  16 N3        30.11R
ALAMOGORDO     FAIR      66  27  22 N6        30.12S
T OR C         FAIR      67  11  11 NW5       30.14R

$$
NMZ519>523-291500-
CENTRAL VALLEYS/CENTRAL HIGHLANDS

CITY           SKY/WX    TMP DP  RH WIND       PRES   REMARKS
ALBUQUERQUE    FAIR      62  22  21 NW5       30.16R
DOUBLE EAGLE   MOSUNNY   61  27  27 N5        30.19R
CLINES CORNERS FAIR      56  32  40 E13       30.27R
BELEN          FAIR      60  13  16 CALM      30.17R
SOCORRO        FAIR      58  20  22 CALM      30.15R

$$
NMZ524>526-539-540-291500-
SOUTHCENTRAL MOUNTAINS

CITY           SKY/WX    TMP DP  RH WIND       PRES   REMARKS
RUIDOSO          N/A     63  14  15 SE7       30.30R

$$
NMZ527>531-291500-
NORTHEAST HIGHLANDS/NORTHEAST PLAINS

CITY           SKY/WX    TMP DP  RH WIND       PRES   REMARKS
LAS VEGAS      FAIR      56  28  34 N8        30.29R
RATON          FAIR      52  36  54 NE6       30.27R
CLAYTON        FAIR      63  50  62 S12       30.21S

$$
NMZ532>537-291500-
EASTCENTRAL PLAINS

CITY           SKY/WX    TMP DP  RH WIND       PRES   REMARKS
TUCUMCARI      CLOUDY    66  56  70 SE13      30.18R
CANNON AFB     PTSUNNY   66  58  76 S18       30.19R
CLOVIS AIRPORT FAIR      66  55  68 S20       30.20R

$$
NMZ028-029-538-291500-
SOUTHEAST PLAINS

CITY           SKY/WX    TMP DP  RH WIND       PRES   REMARKS
ROSWELL        FAIR      69  58  67 SE7       30.13R
ARTESIA        PTSUNNY   68  63  83 SE7       30.14R
CARLSBAD       CLOUDY    73  64  73 SE9       30.10R
HOBBS          CLOUDY    66  66 100 E13G18    30.17R


$$




USA.gov is the U.S. government's official web portal to all federal, state and local government web resources and services.